Regional Weather Roundup
Issued by NWS

Home | Current Version | Previous Version | Graphics & Text | Print | Product List | Glossary On
Versions: 1 2 3 4 5 6 7 8 9 10 11 12 13 14 15 16 17 18 19 20 21 22 23 24 25 26 27 28 29 30 31 32 33 34 35 36 37 38 39 40 41 42 43 44 45 46 47 48 49 50
000
ASUS44 KMEG 231210
RWRTN
TENNESSEE HOURLY STATE WEATHER ROUNDUP
NATIONAL WEATHER SERVICE MEMPHIS TN
600 AM CST SUN NOV 23 2014

TNZ002-004-019-021-049-052-054-088>092-231300-
WEST TENNESSEE

CITY           SKY/WX    TMP DP  RH WIND       PRES   REMARKS
MEMPHIS INTL   CLOUDY    60  55  83 SE15G24   29.76F
NWS MEMPHIS      N/A     59 N/A N/A MISG        N/A
JACKSON        CLOUDY    57  54  89 VRB7      29.81F
DYERSBURG      CLOUDY    57  45  62 SE12      29.80F
UNION CITY     CLOUDY    55  50  82 SE7       29.80F
PARIS          CLOUDY    54  46  76 SE8       29.84F
HUNTINGDON     CLOUDY    55  50  83 SE10      29.85F
LEXINGTON      CLOUDY    54  52  94 SE7       29.84F
SAVANNAH       CLOUDY    55  54  94 VRB7      29.85F
$$

TNZ008-025-027-028-033-062-065-066-231300-
NORTH MIDDLE TENNESSEE

CITY           SKY/WX    TMP DP  RH WIND       PRES   REMARKS
NASHVILLE      CLOUDY    54  42  64 E5        29.92F
CLARKSVILLE    LGT RAIN  53  43  68 SE8       29.89F
SMYRNA         CLOUDY    54  45  71 CALM      29.93F
COOKEVILLE     CLOUDY    55  46  71 S15       29.96F
CROSSVILLE     CLOUDY    54  44  69 SE14G23   30.00F
$$

TNZ061-075-076-078-094-096-097-231300-
SOUTH MIDDLE TENNESSEE

CITY           SKY/WX    TMP DP  RH WIND       PRES   REMARKS
FAYETTEVILLE   MOCLDY    55  46  71 N20G38    29.91F
TULLAHOMA      MOCLDY    54  46  76 SE13      29.94F
WINCHESTER     CLOUDY    54  48  82 E8        29.94F
MCMINNVILLE    PTCLDY    57  52  82 CALM      29.95F
SHELBYVILLE    MOCLDY    57  48  72 SE12      29.92F
$$

TNZ017-018-042-046-047-231300-
NORTHEAST TENNESSEE

CITY           SKY/WX    TMP DP  RH WIND       PRES   REMARKS
TRI CITIES     MOCLDY    38  28  67 NE3       30.13F
ELIZABETHTON   SUNNY     43  36  75 E7        30.13F
$$

TNZ012-013-036-069-073-074-231300-
CENTRAL EAST TENNESSEE

CITY           SKY/WX    TMP DP  RH WIND       PRES   REMARKS
KNOXVILLE      CLOUDY    45  32  60 NE10      30.04F
OAK RIDGE      CLOUDY    46  36  68 CALM      30.06F
GATLINBURG     PTSUNNY   37  32  81 CALM      30.04F
MORRISTOWN     CLOUDY    45  34  65 E7        30.07F
$$

TNZ083-085-099-231300-
SOUTHEAST TENNESSEE

CITY           SKY/WX    TMP DP  RH WIND       PRES   REMARKS
CHATTANOOGA    LGT RAIN  54  47  77 CALM      30.02F
$$

SKY/WX REPORTED AS FAIR MEANS FEW OR NO CLOUDS BELOW
12 THOUSAND FEET.



USA.gov is the U.S. government's official web portal to all federal, state and local government web resources and services.